| time (UTC) | temp F | wind direction | speed MPH | gust MPH | rain 1hr in | rain 24hr in | rain mn in | humidity % | barometer mb |
| 20260505013903 | 48 | 202 | 2.0 | 3.0 | 0.00 | 0.43 | 0.00 | 99 | 1014.1 |
| 20260505013403 | 48 | 205 | 2.0 | 3.0 | 0.00 | 0.43 | 0.00 | 99 | 1014.2 |
| 20260505012904 | 48 | 205 | 1.0 | 3.0 | 0.00 | 0.43 | 0.00 | 99 | 1014.3 |
| 20260505012403 | 48 | 169 | 0.0 | 0.0 | 0.00 | 0.43 | 0.00 | 99 | 1014.3 |
| 20260505011903 | 48 | 169 | 0.0 | 0.0 | 0.00 | 0.43 | 0.00 | 99 | 1014.3 |
| 20260505011403 | 48 | 169 | 0.0 | 2.0 | 0.00 | 0.43 | 0.00 | 99 | 1014.3 |
| 20260505010903 | 48 | 168 | 0.0 | 0.0 | 0.00 | 0.43 | 0.00 | 99 | 1014.3 |
| 20260505005903 | 48 | 169 | 0.0 | 0.0 | 0.00 | 0.43 | 0.00 | 99 | 1014.4 |
| 20260505005403 | 48 | 169 | 0.0 | 0.0 | 0.00 | 0.43 | 0.00 | 99 | 1014.4 |
| 20260505004903 | 48 | 169 | 0.0 | 0.0 | 0.00 | 0.43 | 0.00 | 99 | 1014.3 |
| 20260505004403 | 48 | 169 | 0.0 | 0.0 | 0.00 | 0.43 | 0.00 | 99 | 1014.4 |
| 20260505003903 | 48 | 169 | 0.0 | 0.0 | 0.00 | 0.43 | 0.00 | 99 | 1014.4 |
| 20260505003403 | 48 | 167 | 0.0 | 0.0 | 0.00 | 0.43 | 0.00 | 99 | 1014.4 |
| 20260505002903 | 48 | 166 | 0.0 | 3.0 | 0.00 | 0.43 | 0.00 | 99 | 1014.5 |
| 20260505002403 | 48 | 167 | 1.0 | 3.0 | 0.00 | 0.43 | 0.00 | 99 | 1014.5 |
| 20260505001903 | 49 | 167 | 1.0 | 3.0 | 0.00 | 0.43 | 0.00 | 99 | 1014.5 |
| 20260505001403 | 49 | 167 | 0.0 | 0.0 | 0.00 | 0.43 | 0.00 | 99 | 1014.5 |
| 20260505000903 | 49 | 167 | 0.0 | 0.0 | 0.00 | 0.43 | 0.00 | 99 | 1014.5 |
| 20260505000405 | 49 | 167 | 0.0 | 0.0 | 0.00 | 0.43 | 0.00 | 99 | 1014.5 |
| 20260504235403 | 49 | 167 | 0.0 | 0.0 | 0.00 | 0.43 | 0.00 | 99 | 1014.6 |
| 20260504234403 | 49 | 165 | 0.0 | 2.0 | 0.00 | 0.43 | 0.00 | 99 | 1014.6 |
| 20260504233903 | 49 | 165 | 0.0 | 2.0 | 0.00 | 0.43 | 0.00 | 99 | 1014.6 |
| 20260504233403 | 49 | 165 | 1.0 | 3.0 | 0.00 | 0.43 | 0.00 | 99 | 1014.6 |
| 20260504232904 | 49 | 163 | 2.0 | 5.0 | 0.00 | 0.43 | 0.00 | 99 | 1014.6 |
| 20260504232403 | 49 | 163 | 0.0 | 0.0 | 0.00 | 0.43 | 0.00 | 99 | 1014.6 |
| 20260504231903 | 49 | 163 | 0.0 | 0.0 | 0.00 | 0.43 | 0.00 | 99 | 1014.6 |
| 20260504231403 | 49 | 163 | 0.0 | 0.0 | 0.00 | 0.43 | 0.00 | 99 | 1014.6 |
| 20260504230903 | 49 | 163 | 0.0 | 0.0 | 0.00 | 0.43 | 0.00 | 99 | 1014.7 |
| 20260504230403 | 49 | 163 | 0.0 | 0.0 | 0.00 | 0.43 | 0.00 | 99 | 1014.7 |
| 20260504225903 | 49 | 163 | 0.0 | 0.0 | 0.00 | 0.43 | 0.00 | 99 | 1014.8 |
| 20260504225404 | 49 | 163 | 0.0 | 0.0 | 0.00 | 0.43 | 0.00 | 99 | 1014.8 |
| 20260504224903 | 49 | 163 | 0.0 | 0.0 | 0.00 | 0.43 | 0.00 | 99 | 1014.8 |
| 20260504224403 | 49 | 163 | 0.0 | 0.0 | 0.00 | 0.43 | 0.00 | 99 | 1014.9 |
| 20260504223903 | 49 | 163 | 0.0 | 2.0 | 0.00 | 0.43 | 0.00 | 99 | 1015.0 |
| 20260504223403 | 49 | 163 | 0.0 | 1.0 | 0.00 | 0.43 | 0.00 | 99 | 1015.0 |
| 20260504222903 | 49 | 163 | 1.0 | 3.0 | 0.00 | 0.43 | 0.00 | 99 | 1015.1 |
| 20260504222403 | 49 | 163 | 0.0 | 0.0 | 0.00 | 0.43 | 0.00 | 99 | 1015.0 |
| 20260504221404 | 49 | 163 | 0.0 | 3.0 | 0.00 | 0.43 | 0.00 | 99 | 1015.0 |
| 20260504215903 | 49 | 161 | 0.0 | 0.0 | 0.00 | 0.43 | 0.43 | 99 | 1015.1 |
| 20260504215403 | 49 | 161 | 0.0 | 0.0 | 0.00 | 0.43 | 0.43 | 99 | 1015.2 |
| 20260504214903 | 49 | 161 | 0.0 | 0.0 | 0.00 | 0.43 | 0.43 | 99 | 1015.2 |
| 20260504214403 | 49 | 161 | 0.0 | 3.0 | 0.00 | 0.43 | 0.43 | 99 | 1015.2 |
| 20260504213903 | 49 | 159 | 1.0 | 3.0 | 0.00 | 0.43 | 0.43 | 99 | 1015.2 |
| 20260504213403 | 49 | 140 | 0.0 | 2.0 | 0.00 | 0.43 | 0.43 | 99 | 1015.2 |
| 20260504212904 | 49 | 139 | 0.0 | 0.0 | 0.00 | 0.43 | 0.43 | 99 | 1015.2 |
| 20260504212403 | 49 | 138 | 0.0 | 0.0 | 0.00 | 0.43 | 0.43 | 99 | 1015.2 |
| 20260504211903 | 49 | 137 | 0.0 | 2.0 | 0.00 | 0.43 | 0.43 | 99 | 1015.2 |
| 20260504211403 | 49 | 136 | 1.0 | 3.0 | 0.00 | 0.43 | 0.43 | 99 | 1015.2 |
| 20260504210903 | 49 | 135 | 1.0 | 3.0 | 0.00 | 0.43 | 0.43 | 100 | 1015.2 |
| 20260504210404 | 49 | 167 | 0.0 | 3.0 | 0.00 | 0.44 | 0.43 | 100 | 1015.3 |
| 20260504205903 | 49 | 186 | 1.0 | 3.0 | 0.00 | 0.44 | 0.43 | 99 | 1015.2 |
| 20260504204904 | 49 | 111 | 0.0 | 0.0 | 0.00 | 0.44 | 0.43 | 100 | 1015.2 |
| 20260504204403 | 49 | 111 | 0.0 | 0.0 | 0.01 | 0.44 | 0.43 | 100 | 1015.2 |
| 20260504203903 | 49 | 111 | 0.0 | 0.0 | 0.02 | 0.44 | 0.43 | 100 | 1015.3 |
| 20260504203403 | 49 | 111 | 0.0 | 0.0 | 0.05 | 0.44 | 0.43 | 100 | 1015.2 |
| 20260504202903 | 49 | 111 | 0.0 | 0.0 | 0.06 | 0.45 | 0.43 | 100 | 1015.1 |
| 20260504201904 | 49 | 111 | 0.0 | 2.0 | 0.11 | 0.45 | 0.43 | 100 | 1015.0 |
| 20260504200903 | 49 | 113 | 0.0 | 0.0 | 0.12 | 0.46 | 0.43 | 100 | 1015.0 |
| 20260504200404 | 49 | 113 | 0.0 | 1.0 | 0.13 | 0.46 | 0.43 | 100 | 1014.9 |
| 20260504195904 | 49 | 114 | 1.0 | 3.0 | 0.13 | 0.46 | 0.43 | 100 | 1014.9 |
| 20260504195403 | 49 | 113 | 0.0 | 2.0 | 0.13 | 0.46 | 0.43 | 100 | 1014.9 |
| 20260504194903 | 49 | 136 | 1.0 | 3.0 | 0.13 | 0.46 | 0.43 | 99 | 1014.9 |
| 20260504194403 | 49 | 116 | 1.0 | 3.0 | 0.12 | 0.46 | 0.42 | 99 | 1014.9 |
| 20260504193903 | 49 | 114 | 0.0 | 3.0 | 0.10 | 0.44 | 0.40 | 99 | 1014.9 |
| 20260504193403 | 49 | 172 | 1.0 | 2.0 | 0.09 | 0.42 | 0.38 | 99 | 1015.0 |
| 20260504192904 | 49 | 180 | 3.0 | 6.0 | 0.08 | 0.40 | 0.36 | 99 | 1015.0 |
| 20260504192403 | 49 | 214 | 5.0 | 9.0 | 0.06 | 0.39 | 0.34 | 99 | 1015.1 |
| 20260504191904 | 49 | 194 | 3.0 | 9.0 | 0.04 | 0.37 | 0.31 | 99 | 1015.0 |
| 20260504191403 | 49 | 190 | 4.0 | 9.0 | 0.04 | 0.36 | 0.31 | 99 | 1014.8 |
| 20260504190903 | 49 | 172 | 6.0 | 10.0 | 0.04 | 0.37 | 0.31 | 99 | 1014.6 |
| 20260504185903 | 49 | 216 | 3.0 | 7.0 | 0.05 | 0.36 | 0.30 | 99 | 1014.5 |
| 20260504184903 | 50 | 206 | 3.0 | 8.0 | 0.06 | 0.37 | 0.30 | 99 | 1014.4 |
| 20260504184404 | 50 | 194 | 5.0 | 8.0 | 0.06 | 0.37 | 0.30 | 99 | 1014.5 |
| 20260504182903 | 50 | 219 | 2.0 | 5.0 | 0.06 | 0.36 | 0.28 | 99 | 1014.5 |
| 20260504182406 | 50 | 185 | 2.0 | 6.0 | 0.06 | 0.35 | 0.28 | 98 | 1014.4 |
| 20260504181903 | 50 | 181 | 4.0 | 7.0 | 0.06 | 0.35 | 0.28 | 98 | 1014.4 |
| 20260504181449 | 51 | 174 | 3.0 | 5.0 | 0.06 | 0.35 | 0.27 | 98 | 1014.4 |
| 20260504180903 | 51 | 177 | 3.0 | 7.0 | 0.07 | 0.35 | 0.27 | 98 | 1014.5 |
| 20260504180404 | 51 | 156 | 0.0 | 3.0 | 0.06 | 0.34 | 0.26 | 98 | 1014.5 |
| 20260504175903 | 51 | 138 | 2.0 | 3.0 | 0.06 | 0.33 | 0.25 | 98 | 1014.5 |
| 20260504175404 | 51 | 123 | 1.0 | 3.0 | 0.06 | 0.32 | 0.24 | 98 | 1014.5 |
| 20260504174903 | 50 | 138 | 0.0 | 0.0 | 0.10 | 0.31 | 0.24 | 98 | 1014.5 |
| 20260504174403 | 50 | 138 | 1.0 | 3.0 | 0.13 | 0.31 | 0.24 | 97 | 1014.5 |
| 20260504173904 | 50 | 140 | 1.0 | 2.0 | 0.14 | 0.31 | 0.24 | 97 | 1014.6 |
| 20260504173403 | 51 | 141 | 0.0 | 0.0 | 0.16 | 0.31 | 0.23 | 97 | 1014.7 |
| 20260504172903 | 51 | 141 | 1.0 | 3.0 | 0.17 | 0.31 | 0.23 | 97 | 1014.7 |
| 20260504172403 | 51 | 139 | 0.0 | 2.0 | 0.17 | 0.31 | 0.22 | 97 | 1014.6 |
| 20260504171904 | 50 | 163 | 1.0 | 8.0 | 0.17 | 0.30 | 0.21 | 96 | 1014.7 |
| 20260504171403 | 51 | 168 | 4.0 | 8.0 | 0.16 | 0.29 | 0.20 | 96 | 1014.7 |
| 20260504170404 | 51 | 195 | 1.0 | 3.0 | 0.15 | 0.28 | 0.20 | 95 | 1014.5 |
| 20260504160403 | 53 | 318 | 3.0 | 12.0 | 0.05 | 0.35 | 0.05 | 90 | 1014.0 |
| 20260504150904 | 56 | 325 | 10.0 | 16.0 | 0.00 | 0.38 | 0.00 | 79 | 1013.3 |
| 20260504150404 | 57 | 345 | 9.0 | 15.0 | 0.00 | 0.39 | 0.00 | 77 | 1013.4 |
| 20260504140903 | 57 | 1 | 8.0 | 13.0 | 0.00 | 0.48 | 0.00 | 84 | 1013.5 |
| 20260504140404 | 57 | 354 | 6.0 | 12.0 | 0.00 | 0.48 | 0.00 | 85 | 1013.5 |
| 20260504130404 | 58 | 9 | 5.0 | 10.0 | 0.00 | 0.53 | 0.00 | 76 | 1013.6 |
| 20260504110404 | 57 | 291 | 7.0 | 12.0 | 0.00 | 0.69 | 0.00 | 70 | 1014.1 |
| 20260504100404 | 55 | 231 | 3.0 | 7.0 | 0.00 | 0.69 | 0.00 | 81 | 1014.4 |
| 20260504081903 | 50 | 261 | 0.0 | 2.0 | 0.00 | 0.69 | 0.00 | 100 | 1014.4 |
| 20260504081404 | 50 | 261 | 1.0 | 3.0 | 0.00 | 0.69 | 0.00 | 100 | 1014.4 |
| 20260504080403 | 51 | 257 | 0.0 | 0.0 | 0.00 | 0.69 | 0.00 | 100 | 1014.4 |
| 20260504070403 | 49 | 262 | 0.0 | 0.0 | 0.00 | 0.69 | 0.00 | 100 | 1014.1 |
| 20260504045904 | 49 | 255 | 0.0 | 0.0 | 0.00 | 0.69 | 0.00 | 100 | 1013.2 |
| 20260504045404 | 49 | 255 | 0.0 | 0.0 | 0.00 | 0.69 | 0.00 | 100 | 1013.2 |
| 20260504044904 | 49 | 255 | 0.0 | 0.0 | 0.00 | 0.69 | 0.00 | 100 | 1013.2 |
| 20260504044404 | 49 | 255 | 0.0 | 0.0 | 0.00 | 0.69 | 0.00 | 100 | 1013.3 |
| 20260504043903 | 49 | 255 | 0.0 | 0.0 | 0.00 | 0.69 | 0.00 | 100 | 1013.2 |
| 20260504043403 | 49 | 255 | 0.0 | 0.0 | 0.00 | 0.69 | 0.00 | 100 | 1013.3 |
| 20260504042403 | 49 | 255 | 0.0 | 0.0 | 0.00 | 0.69 | 0.00 | 100 | 1013.4 |
| 20260504041403 | 49 | 255 | 0.0 | 0.0 | 0.00 | 0.69 | 0.00 | 100 | 1013.3 |
| 20260504040904 | 49 | 255 | 0.0 | 3.0 | 0.00 | 0.69 | 0.00 | 100 | 1013.4 |
| 20260504040403 | 49 | 254 | 1.0 | 3.0 | 0.00 | 0.69 | 0.00 | 100 | 1013.4 |
| 20260504035903 | 49 | 253 | 0.0 | 2.0 | 0.00 | 0.69 | 0.00 | 100 | 1013.4 |
| 20260504035403 | 49 | 253 | 1.0 | 5.0 | 0.00 | 0.69 | 0.00 | 100 | 1013.4 |
| 20260504034903 | 49 | 239 | 3.0 | 5.0 | 0.00 | 0.69 | 0.00 | 100 | 1013.5 |
| 20260504034403 | 49 | 242 | 0.0 | 6.0 | 0.00 | 0.69 | 0.00 | 100 | 1013.5 |
| 20260504033903 | 49 | 242 | 1.0 | 5.0 | 0.00 | 0.69 | 0.00 | 100 | 1013.5 |
| 20260504033403 | 49 | 238 | 2.0 | 5.0 | 0.00 | 0.69 | 0.00 | 100 | 1013.4 |
| 20260504032904 | 49 | 248 | 1.0 | 3.0 | 0.00 | 0.69 | 0.00 | 100 | 1013.4 |
| 20260504032404 | 49 | 248 | 1.0 | 3.0 | 0.00 | 0.69 | 0.00 | 100 | 1013.4 |
| 20260504031904 | 49 | 248 | 2.0 | 5.0 | 0.00 | 0.69 | 0.00 | 100 | 1013.4 |
| 20260504031403 | 49 | 241 | 0.0 | 2.0 | 0.00 | 0.69 | 0.00 | 100 | 1013.4 |
| 20260504030404 | 49 | 241 | 1.0 | 6.0 | 0.00 | 0.69 | 0.00 | 100 | 1013.4 |
| 20260504025904 | 50 | 265 | 1.0 | 3.0 | 0.00 | 0.69 | 0.00 | 100 | 1013.4 |
| 20260504025403 | 50 | 266 | 3.0 | 6.0 | 0.00 | 0.69 | 0.00 | 100 | 1013.4 |
| 20260504024904 | 50 | 266 | 1.0 | 6.0 | 0.00 | 0.69 | 0.00 | 100 | 1013.4 |
| 20260504023903 | 50 | 210 | 0.0 | 2.0 | 0.00 | 0.69 | 0.00 | 100 | 1013.4 |
| 20260504021903 | 51 | 191 | 0.0 | 0.0 | 0.00 | 0.69 | 0.00 | 100 | 1013.3 |
| 20260504021404 | 51 | 187 | 0.0 | 2.0 | 0.00 | 0.69 | 0.00 | 100 | 1013.3 |
| 20260504020904 | 51 | 183 | 0.0 | 0.0 | 0.00 | 0.69 | 0.00 | 100 | 1013.3 |
| 20260504020404 | 51 | 183 | 0.0 | 2.0 | 0.00 | 0.69 | 0.00 | 100 | 1013.3 |
| 20260504015903 | 51 | 181 | 0.0 | 0.0 | 0.00 | 0.69 | 0.00 | 100 | 1013.3 |
| 20260504014903 | 50 | 178 | 0.0 | 0.0 | 0.00 | 0.69 | 0.00 | 100 | 1013.3 |